{"data":{"norad_id":66315,"epoch":"2026-05-24T23:45:23.029632Z","epoch_age_seconds":76704,"freshness":"FRESH","line1":"1 66315U 25251A   26144.98984988  .00000349  00000+0  83705-4 0  9998","line2":"2 66315  98.1825 152.6764 0001354  88.7548 271.3807 14.59198318 29345","mean_motion":14.59198318,"eccentricity":0.0001354,"inclination_deg":98.1825,"raan_deg":152.6764,"arg_perigee_deg":88.7548,"mean_anomaly_deg":271.3807,"bstar":8.3705e-5,"rev_number":2934,"period_min":98.684324278395,"perigee_km":694.80592584772,"apogee_km":696.72153816595,"semimajor_km":7073.9007320068,"source":"CELESTRAK","updated_at":"2026-05-25T13:38:06.133934Z"}}